GW7109 Weather Reports


Display with metric or nautical units.
time (UTC)temp
F
wind
direction
speed
MPH
gust
MPH
rain 1hr
in
rain 24hr
in
rain mn
in
humidity
%
barometer
mb
20260510141542 66 166 4.0 6.0 0.00 0.00 0.00 97 1021.1
20260510140547 65 168 3.0 4.0 0.00 0.00 0.00 100 1021.2
20260510135522 65 162 1.0 3.0 0.00 0.00 0.00 100 1021.3
20260510134547 64 152 0.0 2.0 0.00 0.00 0.00 100 1021.1
20260510133524 63 133 1.0 3.0 0.00 0.00 0.00 100 1021.1
20260510132529 62 137 0.0 2.0 0.00 0.00 0.00 100 1021.0
20260510131524 62 121 2.0 3.0 0.00 0.00 0.00 100 1021.0
20260510130528 61 157 1.0 3.0 0.00 0.00 0.00 100 1020.9
20260510125525 60 204 0.0 1.0 0.00 0.00 0.00 100 1021.0
20260510124549 60 278 0.0 3.0 0.00 0.00 0.00 100 1020.9
20260510123524 59 277 0.0 1.0 0.00 0.00 0.00 100 1020.8
20260510122521 58 158 0.0 2.0 0.00 0.00 0.00 100 1020.6
20260510121525 58 160 2.0 5.0 0.00 0.00 0.00 100 1020.3
20260510120523 57 151 4.0 5.0 0.00 0.00 0.00 100 1020.3
20260510115546 57 159 4.0 5.0 0.00 0.00 0.00 100 1020.1
20260510114542 57 164 2.0 3.0 0.00 0.00 0.00 100 1020.0
20260510113526 57 152 2.0 3.0 0.00 0.00 0.00 100 1019.8
20260510112522 56 154 3.0 4.0 0.00 0.00 0.00 100 1019.6
20260510111529 56 150 0.0 2.0 0.00 0.00 0.00 100 1019.4
20260510110522 56 0.0 0.0 0.00 0.00 0.00 100 1019.3
20260510105609 56 154 1.0 2.0 0.00 0.00 0.00 100 1019.2
20260510104524 57 128 1.0 2.0 0.00 0.00 0.00 100 1019.0
20260510103530 57 0.0 0.0 0.00 0.00 0.00 100 1018.9
20260510102544 57 161 1.0 2.0 0.00 0.00 0.00 100 1018.7
20260510101521 57 166 1.0 3.0 0.00 0.00 0.00 100 1018.6
20260510100526 57 0.0 0.0 0.00 0.00 0.00 100 1018.5
20260510095520 57 167 1.0 2.0 0.00 0.00 0.00 100 1018.2
20260510094525 57 0.0 0.0 0.00 0.00 0.00 100 1018.2
20260510093544 58 0.0 0.0 0.00 0.00 0.00 100 1018.1
20260510092527 58 0.0 0.0 0.00 0.00 0.00 100 1018.1
20260510091522 58 0.0 0.0 0.00 0.00 0.00 100 1018.1
20260510090527 58 0.0 0.0 0.00 0.00 0.00 100 1018.0
20260510085522 58 0.0 0.0 0.00 0.00 0.00 100 1018.1
20260510084530 59 0.0 0.0 0.00 0.00 0.00 100 1018.1
20260510083523 59 0.0 0.0 0.00 0.00 0.00 100 1018.0
20260510082530 59 0.0 0.0 0.00 0.00 0.00 100 1017.8
20260510081525 60 0.0 0.0 0.00 0.00 0.00 100 1017.8
20260510080521 60 0.0 0.0 0.00 0.00 0.00 100 1017.5
20260510075525 60 0.0 0.0 0.00 0.00 0.00 100 1017.5
20260510074520 59 0.0 0.0 0.00 0.00 0.00 100 1017.4
20260510073528 60 0.0 0.0 0.00 0.00 0.00 100 1017.4
20260510072520 60 0.0 0.0 0.00 0.00 0.00 99 1017.3
20260510071528 60 0.0 0.0 0.00 0.00 0.00 99 1017.3
20260510070522 60 152 1.0 2.0 0.00 0.00 0.00 99 1017.4
20260510065528 60 156 1.0 4.0 0.00 0.00 0.00 99 1017.4
20260510064522 61 0.0 0.0 0.00 0.00 0.00 99 1017.4
20260510063528 61 0.0 0.0 0.00 0.00 0.00 98 1017.4
20260510062524 61 0.0 0.0 0.00 0.00 0.00 98 1017.3
20260510061529 61 0.0 0.0 0.00 0.00 0.00 98 1017.3
20260510060524 62 0.0 0.0 0.00 0.00 0.00 98 1017.2
20260510055522 62 0.0 0.0 0.00 0.00 0.00 98 1017.3
20260510054525 62 0.0 0.0 0.00 0.00 0.00 98 1017.3
20260510053519 62 0.0 1.0 0.00 0.00 0.00 97 1017.4
20260510052525 63 0.0 0.0 0.00 0.00 0.00 97 1017.3
20260510051602 63 0.0 0.0 0.00 0.00 0.00 97 1017.3
20260510050527 63 0.0 0.0 0.00 0.00 0.00 96 1017.3
20260510045523 64 0.0 1.0 0.00 0.00 0.00 97 1017.3
20260510044528 64 225 1.0 2.0 0.00 0.00 0.00 96 1017.3
20260510043525 65 227 2.0 3.0 0.00 0.00 0.00 96 1017.3
20260510042527 65 0.0 0.0 0.00 0.00 0.00 95 1017.5
20260510041523 65 222 3.0 6.0 0.00 0.00 0.00 95 1017.5
20260510040529 65 229 2.0 3.0 0.00 0.00 0.00 95 1017.6
20260510035525 66 228 3.0 4.0 0.00 0.00 0.00 94 1017.5
20260510034520 66 224 4.0 6.0 0.00 0.00 0.00 94 1017.5
20260510033526 66 230 4.0 6.0 0.00 0.00 0.00 94 1017.6
20260510032520 66 228 4.0 7.0 0.00 0.00 0.00 94 1017.5
20260510031527 66 205 2.0 4.0 0.00 0.00 0.00 93 1017.5
20260510030521 66 181 2.0 4.0 0.00 0.00 0.00 93 1017.3
20260510025529 66 169 2.0 6.0 0.00 0.00 0.00 92 1017.2
20260510024521 66 165 6.0 8.0 0.00 0.00 0.00 92 1017.0
20260510023527 65 164 3.0 4.0 0.00 0.00 0.00 93 1016.9
20260510022547 66 132 2.0 3.0 0.00 0.00 0.00 92 1016.7
20260510021529 65 216 0.0 2.0 0.00 0.00 0.00 91 1016.5
20260510020623 66 125 0.0 1.0 0.00 0.00 0.00 90 1016.2
20260510015532 67 0.0 0.0 0.00 0.00 0.00 89 1016.0
20260510014525 67 162 0.0 2.0 0.00 0.00 0.00 88 1015.7
20260510013550 68 0.0 0.0 0.00 0.00 0.00 86 1015.4
20260510012527 68 0.0 0.0 0.00 0.00 0.00 85 1015.3
20260510011521 69 0.0 0.0 0.00 0.00 0.00 83 1015.1
20260510010528 70 0.0 0.0 0.00 0.00 0.00 81 1014.9
20260510005524 72 0.0 0.0 0.00 0.00 0.00 79 1014.8
20260510004530 73 0.0 0.0 0.00 0.00 0.00 78 1014.6
20260510003524 74 0.0 0.0 0.00 0.00 0.00 75 1014.5
20260510002530 75 215 0.0 1.0 0.00 0.00 0.00 72 1014.4
20260510001523 76 221 2.0 3.0 0.00 0.00 0.00 70 1014.3
20260510000534 78 217 2.0 4.0 0.00 0.00 0.00 68 1014.2
20260509235524 78 215 2.0 4.0 0.00 0.00 0.00 66 1014.2
20260509234530 79 210 1.0 4.0 0.00 0.00 0.00 66 1014.0
20260509233528 79 185 0.0 1.0 0.00 0.00 0.00 64 1014.1
20260509232530 79 227 1.0 2.0 0.00 0.00 0.00 61 1014.0
20260509231524 79 215 1.0 3.0 0.00 0.00 0.00 60 1014.1
20260509230521 78 236 1.0 3.0 0.00 0.00 0.00 57 1014.1
20260509225700 79 297 3.0 4.0 0.00 0.00 0.00 55 1014.0
20260509224520 78 262 2.0 3.0 0.00 0.00 0.00 56 1013.9
20260509223528 79 218 1.0 3.0 0.00 0.00 0.00 55 1013.7
20260509222521 79 281 2.0 5.0 0.00 0.00 0.00 55 1013.8
20260509221528 79 291 2.0 3.0 0.00 0.00 0.00 56 1013.9
20260509220522 79 274 4.0 5.0 0.00 0.00 0.00 54 1013.7
20260509215527 79 290 2.0 4.0 0.00 0.00 0.00 54 1013.8
20260509214524 79 288 3.0 5.0 0.00 0.00 0.00 54 1013.6
20260509213549 79 284 4.0 7.0 0.00 0.00 0.00 53 1013.7
20260509212524 79 241 4.0 6.0 0.00 0.00 0.00 54 1013.6
20260509211549 79 288 4.0 7.0 0.00 0.00 0.00 52 1013.8
20260509210526 79 302 5.0 7.0 0.00 0.00 0.00 54 1013.8
20260509205520 79 299 4.0 9.0 0.00 0.00 0.00 55 1013.8
20260509204526 80 244 5.0 8.0 0.00 0.00 0.00 55 1013.9
20260509203521 82 226 3.0 7.0 0.00 0.00 0.00 52 1014.0
20260509202528 80 54 2.0 4.0 0.00 0.00 0.00 56 1014.1
20260509201522 79 300 4.0 7.0 0.00 0.00 0.00 57 1014.3
20260509200553 78 303 4.0 6.0 0.00 0.00 0.00 59 1014.4
20260509195523 79 289 5.0 7.0 0.00 0.00 0.00 57 1014.3
20260509194530 80 323 3.0 5.0 0.00 0.00 0.00 57 1014.3
20260509193523 79 13 5.0 8.0 0.00 0.00 0.00 59 1014.2
20260509192532 79 350 2.0 4.0 0.00 0.00 0.00 60 1014.3
20260509191525 79 293 4.0 7.0 0.00 0.00 0.00 60 1014.4
20260509190531 79 207 3.0 6.0 0.00 0.00 0.00 58 1014.6
20260509185528 79 225 3.0 7.0 0.00 0.00 0.00 59 1014.7
20260509184520 77 276 5.0 8.0 0.00 0.00 0.00 63 1014.8
20260509183526 78 229 4.0 6.0 0.00 0.00 0.00 63 1014.9
20260509182520 77 229 6.0 9.0 0.00 0.00 0.00 63 1015.0
20260509181527 77 205 6.0 10.0 0.00 0.00 0.00 63 1015.1
20260509180607 77 216 5.0 8.0 0.00 0.00 0.00 64 1015.2
20260509175528 75 241 5.0 7.0 0.00 0.00 0.00 66 1015.3
20260509174524 75 191 4.0 8.0 0.00 0.00 0.00 67 1015.1
20260509173529 74 233 7.0 11.0 0.00 0.00 0.00 67 1015.2
20260509172523 76 236 4.0 6.0 0.00 0.00 0.00 67 1015.3
20260509171530 76 218 4.0 6.0 0.00 0.00 0.00 66 1015.3
20260509170526 75 285 5.0 7.0 0.00 0.00 0.00 67 1015.4
20260509165530 73 213 4.0 8.0 0.00 0.00 0.00 71 1015.4
20260509164605 72 234 5.0 7.0 0.00 0.00 0.00 73 1015.8
20260509163520 72 202 5.0 8.0 0.00 0.00 0.00 73 1015.8
20260509162526 70 187 4.0 6.0 0.00 0.00 0.00 77 1015.9
20260509161524 69 243 4.0 6.0 0.00 0.00 0.00 78 1015.9
20260509160528 69 222 4.0 7.0 0.00 0.00 0.00 79 1015.9
20260509155543 69 165 5.0 8.0 0.00 0.00 0.00 79 1015.9
20260509154549 71 145 6.0 9.0 0.00 0.00 0.00 76 1015.9
20260509153523 69 155 5.0 9.0 0.00 0.00 0.00 80 1015.8
20260509152550 67 166 3.0 4.0 0.00 0.00 0.00 83 1015.8
20260509151523 67 142 5.0 9.0 0.00 0.00 0.00 83 1015.8
20260509150528 67 133 6.0 8.0 0.00 0.00 0.00 84 1015.8
20260509145526 65 157 3.0 6.0 0.00 0.00 0.00 88 1015.8
20260509144531 63 163 4.0 6.0 0.00 0.00 0.00 92 1015.9
20260509143524 62 231 3.0 5.0 0.00 0.00 0.00 93 1016.0
20260509142522 62 222 4.0 7.0 0.00 0.00 0.00 93 1016.0